Location: Central Coast
(33.3208°S, 151.2336°E)
Time: 15:16:48
(UTC+11:00)

Envisat - Pass Details

Date: 17 October 2017
Orbit: 764 x 766 km, 98.2° (Epoch: 22 October)

Event Time Altitude Azimuth Distance (km) Brightness Sun altitude
Rises 22:57:52 0° 194° (SSW) 3,266 7.0 -40.8°
Reaches altitude 10° 23:02:01 10° 227° (SW) 2,328 6.1 -41.3°
Maximum altitude 23:03:28 11° 243° (WSW) 2,241 5.9 -41.4°
Enters shadow 23:04:10 11° 252° (WSW) 2,259 5.8 -41.5°
